DW4277 Weather Reports


time (UTC)temp
C
wind
direction
speed
KPH
gust
KPH
rain 1hr
cm
rain 24hr
cm
rain mn
cm
humidity
%
barometer
mb
20260506013021 17 350 6.4 30.6 0.00 0.00 0.00 66 1005.8
20260506011506 17 345 16.1 53.1 0.00 0.00 0.00 67 1005.8
20260506010003 16 334 29.0 48.3 0.00 0.00 0.00 70 1005.6
20260506004600 15 230 0.0 0.0 0.00 0.00 0.00 68 1005.5
20260506003057 15 230 0.0 0.0 0.00 0.00 0.00 67 1005.2
20260506001614 15 230 0.0 0.0 0.00 0.00 0.00 67 1005.0
20260506000053 15 230 0.0 20.9 0.00 0.00 0.00 66 1005.0
20260505234553 15 225 0.0 0.0 0.00 0.00 0.00 67 1004.8
20260505233055 15 225 0.0 16.1 0.00 0.00 0.00 66 1004.6
20260505231553 15 225 0.0 11.3 0.00 0.00 0.00 66 1004.6
20260505230047 15 225 0.0 12.9 0.00 0.00 0.00 65 1004.4
20260505224547 15 225 0.0 0.0 0.00 0.00 0.00 65 1004.2
20260505223048 16 225 0.0 22.5 0.00 0.00 0.00 64 1004.0
20260505221544 16 225 0.0 0.0 0.00 0.00 0.00 63 1003.9
20260505220041 16 224 0.0 9.7 0.00 0.00 0.00 61 1003.8
20260505214554 17 225 4.8 25.7 0.00 0.00 0.00 60 1003.6
20260505213050 17 224 4.8 29.0 0.00 0.00 0.00 60 1003.6
20260505211534 16 213 8.0 17.7 0.00 0.00 0.00 61 1003.5
20260505210034 17 212 0.0 12.9 0.00 0.00 0.00 60 1003.4
20260505204536 17 211 3.2 25.7 0.00 0.00 0.00 59 1003.0
20260505203039 17 224 9.7 37.0 0.00 0.00 0.00 57 1002.8
20260505201545 18 235 11.3 32.2 0.00 0.00 0.00 57 1002.7
20260505200032 18 240 14.5 45.1 0.00 0.00 0.00 56 1002.7
20260505194531 18 224 17.7 37.0 0.00 0.00 0.00 55 1002.7
20260505193042 18 230 11.3 43.5 0.00 0.00 0.00 54 1002.6
20260505191530 18 230 16.1 41.8 0.00 0.00 0.00 54 1002.7
20260505190036 18 225 9.7 54.7 0.00 0.00 0.00 53 1002.6
20260505184529 19 219 12.9 41.8 0.00 0.00 0.00 53 1002.7
20260505183044 19 208 17.7 53.1 0.00 0.00 0.00 52 1002.6
20260505181530 20 222 19.3 61.2 0.00 0.00 0.00 50 1002.4
20260505180036 20 247 25.7 64.4 0.00 0.00 0.00 49 1002.5
20260505174536 21 217 24.1 75.6 0.00 0.00 0.00 48 1002.5
20260505173035 21 230 20.9 77.2 0.00 0.00 0.00 46 1002.6
20260505171530 22 230 37.0 78.9 0.00 0.00 0.00 45 1002.5
20260505170027 22 215 38.6 77.2 0.00 0.00 0.00 44 1002.6
20260505164533 22 213 19.3 85.3 0.00 0.00 0.00 44 1002.6
20260505163024 22 230 32.2 90.1 0.00 0.00 0.00 45 1002.7
20260505161522 23 253 32.2 75.6 0.00 0.00 0.00 44 1002.9
20260505153027 23 250 22.5 83.7 0.00 0.00 0.00 42 1002.9
20260505151519 24 263 40.2 86.9 0.00 0.00 0.00 41 1003.0
20260505124507 27 214 46.7 90.1 0.00 0.00 0.00 30 1004.0
20260505123005 27 224 35.4 70.8 0.00 0.00 0.00 28 1004.2
20260505121504 27 215 30.6 70.8 0.00 0.00 0.00 26 1004.4
20260505120002 27 257 25.7 70.8 0.00 0.00 0.00 28 1004.6
20260505114604 26 226 24.1 61.2 0.00 0.00 0.00 29 1004.6
20260505113058 26 226 25.7 72.4 0.00 0.00 0.00 29 1004.8
20260505111600 26 187 24.1 74.0 0.00 0.00 0.00 30 1004.8
20260505101546 23 240 14.5 33.8 0.00 0.00 0.00 48 1005.7
20260505100039 22 70 6.4 17.7 0.00 0.00 0.00 49 1006.0
20260505094534 22 174 0.0 19.3 0.00 0.00 0.00 50 1006.3
20260505093037 21 178 0.0 12.9 0.00 0.00 0.00 52 1006.7
20260505091538 21 181 0.0 17.7 0.00 0.00 0.00 51 1007.0
20260505090041 20 178 14.5 30.6 0.00 0.00 0.00 51 1007.1
20260505084524 20 191 6.4 22.5 0.00 0.00 0.00 55 1007.2
20260505083018 19 175 12.9 24.1 0.00 0.00 0.00 57 1007.2
20260505081513 18 165 11.3 22.5 0.00 0.00 0.00 59 1007.2
20260505080010 17 129 1.6 20.9 0.00 0.00 0.00 61 1007.3
20260505074507 17 134 9.7 16.1 0.00 0.00 0.00 62 1007.3
20260505073008 16 212 0.0 0.0 0.00 0.00 0.00 65 1007.6
20260505071503 16 198 0.0 0.0 0.00 0.00 0.00 67 1007.6
20260505070002 15 198 0.0 0.0 0.00 0.00 0.00 69 1007.6
20260505064502 15 198 0.0 0.0 0.00 0.00 0.00 68 1007.5
20260505063004 15 199 0.0 0.0 0.00 0.00 0.00 70 1007.4
20260505061605 14 200 0.0 4.8 0.00 0.00 0.00 71 1007.4
20260505060100 14 200 0.0 0.0 0.00 0.00 0.00 73 1007.5
20260505054600 13 200 0.0 0.0 0.00 0.00 0.00 71 1007.4
20260505053103 13 200 0.0 0.0 0.00 0.00 0.00 72 1007.4
20260505051558 13 200 0.0 0.0 0.00 0.00 0.00 73 1007.3
20260505050123 12 200 0.0 0.0 0.00 0.00 0.00 75 1007.3
20260505041558 11 194 0.0 0.0 0.00 0.00 0.00 77 1007.3
20260505040053 11 194 0.0 0.0 0.00 0.00 0.00 76 1007.3
20260505034540 11 194 0.0 0.0 0.00 0.00 0.00 75 1007.3
20260505033045 11 194 0.0 0.0 0.00 0.00 0.00 75 1007.3
20260505031544 11 194 0.0 0.0 0.00 0.00 0.00 74 1007.3
20260505030040 11 194 0.0 0.0 0.00 0.00 0.00 74 1007.4
20260505024532 11 194 0.0 0.0 0.00 0.00 0.00 72 1007.5
20260505023039 12 194 0.0 0.0 0.00 0.00 0.00 70 1007.5
20260505021529 12 194 0.0 0.0 0.00 0.00 0.00 68 1007.6
20260505020026 13 194 0.0 0.0 0.00 0.00 0.00 68 1007.5
20260505014524 13 194 0.0 0.0 0.00 0.00 0.00 67 1007.6